Regional Weather Roundup
Issued by NWS

Home | Current Version | Previous Version | Text Only | Print | Product List | Glossary On
Versions: 1 2 3 4 5 6 7 8 9 10 11 12 13 14 15 16 17 18 19 20 21 22 23 24 25 26 27 28 29 30 31 32 33 34 35 36 37 38 39 40 41 42 43 44 45 46 47 48 49 50
000
ASUS43 KMPX 220801
RWRMN
WEATHER ROUNDUP FOR MINNESOTA
NATIONAL WEATHER SERVICE TWIN CITIES/CHANHASSEN MN
200 AM CST MON DEC 22 2014


NOTE: "FAIR" INDICATES FEW OR NO CLOUDS BELOW 12,000 FEET WITH NO
SIGNIFICANT WEATHER AND/OR OBSTRUCTIONS TO VISIBILITY. N/A MEANS
CURRENT SKY AND/OR WEATHER CONDITIONS ARE NOT AVAILABLE.

MNZ060>063-068>070-220900-
   Twin Cities Metro

CITY           SKY/WX    TMP DP  RH WIND       PRES   REMARKS
TWIN CITIES    LGT RAIN  38  36  92 S10       29.70F FOG
ST PAUL        CLOUDY    38  37  97 SE12      29.72F FOG
CRYSTAL        CLOUDY    39  37  92 SE12      29.68S FOG
BLAINE         CLOUDY    39  39 100 S13G21    29.69S FOG
LAKEVILLE      CLOUDY    36  36 100 SE9G16    29.69F FOG
EDEN PRAIRIE   CLOUDY    39  37  92 SE16      29.67F FOG
SOUTH ST PAUL  CLOUDY    38  37  94 SE8       29.71S FOG
LAKE ELMO      LGT RAIN  37  36  93 S10G18    29.72S
$$
MNZ001>005-007-008-013>017-022>024-027-028-220900-
   Northwest Minnesota

CITY           SKY/WX    TMP DP  RH WIND       PRES   REMARKS
BEMIDJI        CLOUDY    33  33  99 SE8       29.58F FOG     WCI  26
HALLOCK        CLOUDY    34  32  93 CALM      29.57S
ROSEAU         CLOUDY    34  30  86 SE6       29.60S WCI  29
WARROAD        CLOUDY    34  28  80 SE5       29.61S WCI  30
THIEF RVR FALL CLOUDY    34  32  93 E10       29.57S WCI  26
CROOKSTON      CLOUDY    36  34  93 SE9       29.55F
FOSSTON        CLOUDY    34  32  93 CALM      29.56F
DETROIT LAKES  CLOUDY    34  34 100 SE10      29.54F FOG     WCI  26
MOORHEAD       CLOUDY    37  37 100 SE7       29.53F FOG
PARK RAPIDS    CLOUDY    35  34  96 SE9       29.57S FOG     WCI  28
MAHNOMEN       CLOUDY    34  33  96 SE8       29.55S FOG     WCI  27
$$
MNZ006-009>011-018-025>026-220900-
   North Central Minnesota

CITY           SKY/WX    TMP DP  RH WIND       PRES   REMARKS
BAUDETTE       CLOUDY    33  31  92 VRB6      29.61F WCI  28
FLAG ISLAND    CLOUDY    32  30  93 SE5       29.62S WCI  27
INTL FALLS     CLOUDY    33  31  92 SE6       29.65F FOG     WCI  28
WASKISH        CLOUDY    34  34 100 CALM      29.62S
BIG FORK       CLOUDY    34  32  93 SE7       29.64S FOG     WCI  28
LONGVILLE      CLOUDY    34  34 100 SE7       29.61F FOG     WCI  28
GRAND RAPIDS   CLOUDY    34  30  86 SE8       29.64F WCI  27
CRANE LAKE     CLOUDY    32  30  93 CALM      29.70F FOG
ORR            CLOUDY    32  30  93 SE5       29.64F FOG     WCI  27
COOK           CLOUDY    34  34 100 SE6       29.68S FOG     WCI  29
WALKER         CLOUDY    33  33  99 SE5       29.60F FOG     WCI  28
$$
MNZ012-019>021-037-220900-
   Northeast Minnesota

CITY           SKY/WX    TMP DP  RH WIND       PRES   REMARKS
DULUTH         LGT SNOW  35  33  92 S9        29.70S FOG     WCI  28
ELY            CLOUDY    34  32  93 SE7       29.70S FOG     WCI  28
HIBBING        FOG       34  32  92 SE7       29.67S VSB 1   WCI  28
EVELETH        FOG       32  32 100 SE5       29.70R VSB 1   WCI  27
DULUTH HARBOR  DRIZZLE   37  34  87 CALM      29.74S
TWO HARBORS    CLOUDY    37  32  81 SE2       29.71F VSB 3/4
SILVER BAY       N/A     36 N/A N/A CALM      29.72F
GRAND MARAIS     N/A     38  34  85 S14       29.78F
G MARAIS ARPRT MIX PCPN  30  28  93 S5        29.74S VSB<1/4 WCI  25
$$
MNZ029>031-032-039>041-046>048-054>057-064-220900-
   West Central Minnesota

CITY           SKY/WX    TMP DP  RH WIND       PRES   REMARKS
FERGUS FALLS   CLOUDY    36  36 100 SE16      29.56S FOG
WHEATON        CLOUDY    34  32  93 SE14      29.53F FOG     WCI  24
MORRIS         CLOUDY    36  36 100 SE17      29.53S FOG
ALEXANDRIA     CLOUDY    36  35  96 SE15      29.57S FOG
ELBOW LAKE     CLOUDY    35  35  99 SE15      29.53F FOG     WCI  25
WADENA         CLOUDY    34  34 100 SE12      29.56F FOG     WCI  25
GLENWOOD       CLOUDY    36  36 100 SE13      29.57F FOG
APPLETON       CLOUDY    37  36  93 SE9       29.54S
BENSON         CLOUDY    36  36 100 S14G20    29.55F
ORTONVILLE     CLOUDY    36  34  93 SE13      29.51F FOG
MADISON        MOCLDY    39  37  93 SE14      29.52F
WILLMAR        CLOUDY    37  36  93 SE16      29.60F FOG
$$
MNZ033>034-036-042>043-049>051-058-059-220900-
   Central Minnesota

CITY           SKY/WX    TMP DP  RH WIND       PRES   REMARKS
ST CLOUD       CLOUDY    39  35  86 SE12      29.64F FOG
SAUK CENTRE    CLOUDY    35  34  99 SE12      29.59F FOG     WCI  26
PAYNESVILLE    DRIZZLE   33  34 100 E12       29.61F WCI  25
AITKIN         CLOUDY    37  32  81 SE7       29.63F HAZE
PINE RIVER     CLOUDY    34  34 100 SE8       29.65F FOG     WCI  27
BRAINERD       CLOUDY    35  34  96 SE9       29.63F FOG     WCI  28
STAPLES        CLOUDY    34  34 100 SE7       29.59F FOG     WCI  28
LONG PRAIRIE   CLOUDY    34  34 100 SE10      29.59F FOG     WCI  26
LITTLE FALLS   MIX PCPN  34  34 100 SE10      29.63S WCI  26
LITCHFIELD     CLOUDY    37  37 100 SE10G17   29.63S FOG
BUFFALO        CLOUDY    37  36  94 SE9       29.67S FOG
MAPLE LAKE     CLOUDY    38  38  99 SE7       29.66F FOG
$$
MNZ037-044-045-052-053-220900-
   East Central Minnesota

CITY           SKY/WX    TMP DP  RH WIND       PRES   REMARKS
PRINCETON      CLOUDY    37  37 100 SE8       29.67S FOG
MORA           CLOUDY    34  34 100 SE5       29.70S WCI  30
CAMBRIDGE      CLOUDY    39  32  75 SE8       29.67S HAZE
RUSH CITY      CLOUDY    35  34  96 SE6       29.70S WCI  30
MOOSE LAKE     CLOUDY    34  32  93 SE5       29.68S FOG     WCI  30
HINCKLEY       CLOUDY    34  34 100 CALM      29.69F FOG
CLOQUET        LGT SNOW  34  32  93 SE5       29.70S WCI  30
MCGREGOR       CLOUDY    34  34 100 SE7       29.67S WCI  28
$$
MNZ071>073-080-081-089-090-097-098-220900-
   Southwest Minnesota

CITY           SKY/WX    TMP DP  RH WIND       PRES   REMARKS
MONTEVIDEO     CLOUDY    37  37 100 S8        29.56S
GRANITE FALLS  CLOUDY    37  36  96 SE12      29.57F
CANBY          CLOUDY    39  37  92 S12G17    29.51F
MARSHALL       CLOUDY    39  36  87 S15       29.54F
REDWOOD FALLS  CLOUDY    38  37  97 S17       29.59S FOG
OLIVIA         CLOUDY    36  36 100 SE13      29.59S FOG
PIPESTONE      DRZL/FOG  37  37 100 S13       29.51F VSB 1/2
WINDOM         DRIZZLE   39  37  93 S13       29.58F
WORTHINGTON    CLOUDY    39 -11  11 S17       29.56F
JACKSON        CLOUDY    37  37 100 S14       29.60F FOG
TRACY          CLOUDY    39  38  96 S13G21    29.55F FOG
SLAYTON        CLOUDY    37  37 100 S15       29.56F FOG
$$
MNZ065>067-074>077-082>085-091>093-220900-
   South Central Minnesota

CITY           SKY/WX    TMP DP  RH WIND       PRES   REMARKS
MANKATO        CLOUDY    39  34  81 S16       29.65F
NEW ULM        CLOUDY    37  37 100 S15G21    29.62F FOG
ST JAMES       CLOUDY    39  37  93 SE14      29.63F FOG
FAIRMONT       CLOUDY    39  36  87 S16       29.63F
GLENCOE        CLOUDY    39  38  99 SE10      29.64F FOG
FARIBAULT      CLOUDY    39  37  93 SE12G22   29.69F
OWATONNA       CLOUDY    37  36  93 SE15      29.69F FOG
WASECA         CLOUDY    36  36 100 SE15      29.69F
ALBERT LEA     CLOUDY    37  37 100 SE15      29.69F FOG
$$
MNZ078>079-086>088-094>096-220900-
   Southeast Minnesota

CITY           SKY/WX    TMP DP  RH WIND       PRES   REMARKS
ROCHESTER      CLOUDY    35  34  96 S17       29.74F FOG     WCI  25
RED WING       CLOUDY    37  36  93 S13G18    29.74S FOG
STANTON        CLOUDY    39  36  90 SE15      29.70S FOG
DODGE CENTER   DRIZZLE   36  36 100 S17       29.71F
WINONA         CLOUDY    37  36  93 S5        29.80F FOG
AUSTIN         LGT RAIN  36  36 100 S12G17    29.72S
PRESTON        CLOUDY    34  33  96 S16       29.76F FOG     WCI  24
$$
ABBREVIATIONS USED IN REMARKS
   TC - TEMPERATURES IN CELSIUS
  WCI - WIND CHILL INDEX
   HX - HEAT INDEX
  VSB - VISIBILITY
$$


USA.gov is the U.S. government's official web portal to all federal, state and local government web resources and services.